• Join FlightAware (Why Join?)
  • Login
  • US Flag 
06:24AM EST


 

Airport Tracker/Info


-or-


 

Live Flight TrackerFlight Track Log ✈ AAY875 ✈ 24-Apr-2014 ✈ KBGR - KPIE

Flight Track Log - Related Links

Times and Time Zones

All times are in EDT time to prevent confusion due to time zone crossing. See the AAY875 flight status page for this flight to view local times or setup timezone preferences in your user account.

Time Position Orientation Groundspeed Altitude Reporting Facility
EDT Latitude Longitude Course Direction KTS MPH feet Rate Location/Type
05:23PM 44.8339 -68.8933 224° Southwest 169 194 3,200  Level Boston Center
05:24PM 44.7986 -68.9794 240° Southwest 249 287 5,800 2,585 Climbing Boston Center
05:25PM 44.7497 -69.0717 233° Southwest 281 323 8,500 2,488 Climbing Boston Center
05:26PM 44.6939 -69.1650 230° Southwest 302 348 10,900 1,854 Climbing Boston Center
05:27PM 44.6208 -69.2619 223° Southwest 354 407 12,300 1,805 Climbing Boston Center
05:28PM 44.3306 -69.4929 224° Southwest  Level FlightAware Approximate
05:28PM 44.5386 -69.3708 223° Southwest 394 453 14,600  Level Boston Center
05:29PM 44.4553 -69.4850 224° Southwest 407 468 16,900 2,293 Climbing Boston Center
05:30PM 44.3708 -69.6019 225° Southwest 418 481 19,300 2,390 Climbing Boston Center
05:31PM 44.2656 -69.7433 224° Southwest 431 496 21,800 2,098 Climbing Boston Center
05:32PM 44.1772 -69.8633 224° Southwest 436 502 23,600 1,512 Climbing Boston Center
05:33PM 44.0869 -69.9856 224° Southwest 448 516 24,900 1,317 Climbing Boston Center
05:34PM 43.9939 -70.1083 224° Southwest 453 521 26,300 1,463 Climbing Boston Center
05:35PM 43.9006 -70.2322 224° Southwest 459 528 27,900 1,171 Climbing Boston Center
05:36PM 43.8053 -70.3553 223° Southwest 464 534 28,700 829 Climbing Boston Center
05:37PM 43.7111 -70.4844 225° Southwest 470 541 29,600 1,220 Climbing Boston Center
05:38PM 43.6106 -70.6067 221° Southwest 474 545 31,200 1,171 Climbing Boston Center
05:39PM 43.5144 -70.7306 223° Southwest 474 545 32,000 390 Climbing Boston Center
05:40PM 43.4058 -70.8725 224° Southwest 472 543 32,000  Level Boston Center
05:41PM 43.3072 -70.9967 223° Southwest 471 542 32,000  Level Boston Center
05:42PM 43.2133 -71.1186 223° Southwest 470 541 32,000  Level Boston Center
05:43PM 43.1175 -71.2378 222° Southwest 469 540 32,000  Level Boston Center
05:44PM 43.0244 -71.3594 224° Southwest 467 537 32,000  Level Boston Center
05:45PM 42.9375 -71.4836 226° Southwest 458 527 32,000  Level Boston Center
05:46PM 42.8528 -71.6047 226° Southwest 451 519 32,000  Level Boston Center
05:47PM 42.7658 -71.7275 226° Southwest 451 519 32,000  Level Boston Center
05:48PM 42.6789 -71.8503 226° Southwest 451 519 32,000  Level Boston Center
05:49PM 42.5756 -71.9975 226° Southwest 450 518 32,000  Level Boston Center
05:50PM 42.4900 -72.1158 226° Southwest 444 511 32,000  Level Boston Center
05:51PM 42.4031 -72.2378 226° Southwest 444 511 32,000  Level Boston Center
05:54PM 42.2314 -72.4750 228° Southwest 439 505 32,000  Level Boston Center
05:55PM 42.1456 -72.5936 226° Southwest 439 505 32,000  Level Boston Center
05:56PM 42.0589 -72.7136 226° Southwest 440 506 32,000  Level Boston Center
05:57PM 41.9711 -72.8319 225° Southwest 441 507 32,000  Level Boston Center
05:58PM 41.8850 -72.9508 226° Southwest 442 509 32,000  Level Boston Center
05:59PM 41.7989 -73.0661 225° Southwest 441 507 32,000  Level Boston Center
06:00PM 41.6939 -73.2069 225° Southwest 442 509 32,000  Level Boston Center
06:01PM 41.6064 -73.3244 225° Southwest 445 512 32,000  Level Boston Center
06:02PM 41.5164 -73.4453 225° Southwest 445 512 32,000  Level Boston Center
06:03PM 41.4297 -73.5622 225° Southwest 445 512 32,000  Level Boston Center
06:04PM 41.3425 -73.6783 225° Southwest 445 512 32,000  Level Boston Center
06:05PM 41.2558 -73.7919 225° Southwest 444 511 32,000  Level Boston Center
06:06PM 41.1697 -73.9061 225° Southwest 442 509 32,000  Level Boston Center
06:06PM 41.1117 -73.9850 226° Southwest 445 512 32,000  Level New York Center
06:07PM 41.0253 -74.0964 224° Southwest 450 518 32,000 -49 Level New York Center
06:08PM 40.9408 -74.2075 225° Southwest 445 512 31,900 -50 Descending New York Center
06:09PM 40.8564 -74.3158 224° Southwest 445 512 31,900  Level New York Center
06:10PM 40.7717 -74.4292 225° Southwest 445 512 31,900  Level New York Center
06:11PM 40.7011 -74.5486 232° Southwest 434 499 31,900  Level New York Center
06:12PM 40.6286 -74.6675 231° Southwest 429 494 31,900  Level New York Center
06:13PM 40.5517 -74.7833 229° Southwest 429 494 31,900 303 Level New York Center
06:14PM 40.4706 -74.9014 228° Southwest 434 499 32,500 700 Climbing New York Center
06:15PM 40.3936 -75.0114 227° Southwest 429 494 33,300 694 Climbing New York Center
06:16PM 40.3147 -75.1233 227° Southwest 424 488 33,900 300 Climbing New York Center
06:17PM 40.2353 -75.2353 227° Southwest 424 488 33,900  Level New York Center
06:18PM 40.1581 -75.3472 228° Southwest 424 488 33,900  Level New York Center
06:19PM 40.0744 -75.4611 226° Southwest 429 494 33,900  Level New York Center
06:20PM 39.9928 -75.5722 226° Southwest 429 494 33,900  Level New York Center
06:21PM 39.9153 -75.6858 228° Southwest 429 494 33,900  Level New York Center
06:22PM 39.8394 -75.8022 230° Southwest 429 494 33,900  Level New York Center
06:23PM 39.7736 -75.9244 235° Southwest 424 488 33,900  Level New York Center
06:24PM 39.7531 -76.0608 259° West 401 461 33,900  Level New York Center
06:25PM 39.7303 -76.1939 257° West 383 441 33,900 51 Level New York Center
06:26PM 39.6772 -76.3033 238° Southwest 388 447 34,000  Climbing New York Center
06:27PM 39.5833 -76.3519 202° Southwest 436 502 33,900 -51 Descending Washington Center
06:28PM 39.4439 -76.4200 201° Southwest 431 496 33,900  Level Washington Center
06:29PM 39.3714 -76.5328 230° Southwest 409 471 33,900  Level Washington Center
06:30PM 39.2992 -76.6469 231° Southwest 410 472 33,900  Level Washington Center
06:31PM 39.2256 -76.7617 230° Southwest 413 475 33,900  Level Washington Center
06:32PM 39.1522 -76.8764 231° Southwest 414 476 33,900 48 Level Washington Center
06:33PM 39.0697 -77.0028 230° Southwest 414 476 34,000 48 Climbing Washington Center
06:35PM 38.9836 -77.1028 222° Southwest 422 486 34,000  Level Washington Center
06:36PM 38.8944 -77.2058 222° Southwest 429 494 34,000  Level Washington Center
06:37PM 38.7872 -77.3219 220° Southwest 429 494 34,000  Level Washington Center
06:38PM 38.6981 -77.4181 220° Southwest 425 489 34,000  Level Washington Center
06:39PM 38.6083 -77.5161 221° Southwest 427 491 34,000  Level Washington Center
06:40PM 38.5181 -77.6153 221° Southwest 429 494 34,000  Level Washington Center
06:41PM 38.4283 -77.7131 221° Southwest 429 494 34,000  Level Washington Center
06:42PM 38.3200 -77.8289 220° Southwest 428 493 34,000  Level Washington Center
06:43PM 38.2300 -77.9256 220° Southwest 428 493 34,000  Level Washington Center
06:44PM 38.1392 -78.0214 220° Southwest 427 491 34,000  Level Washington Center
06:45PM 38.0492 -78.1175 220° Southwest 427 491 34,000  Level Washington Center
06:46PM 37.9550 -78.2125 219° Southwest 426 490 34,000  Level Washington Center
06:47PM 37.8436 -78.3169 217° Southwest 426 490 34,000  Level Washington Center
06:48PM 37.7508 -78.4044 217° Southwest 425 489 34,000  Level Washington Center
06:49PM 37.6578 -78.4928 217° Southwest 426 490 34,000  Level Washington Center
06:50PM 37.5475 -78.5969 217° Southwest 426 490 34,000  Level Washington Center
06:51PM 37.4544 -78.6831 216° Southwest 426 490 34,000  Level Washington Center
06:52PM 37.3617 -78.7708 217° Southwest 425 489 34,000  Level Washington Center
06:53PM 37.2683 -78.8569 216° Southwest 425 489 34,000  Level Washington Center
06:54PM 37.1586 -78.9603 217° Southwest 424 488 34,000  Level Washington Center
06:55PM 37.0664 -79.0456 216° Southwest 424 488 34,000  Level Washington Center
06:56PM 36.9739 -79.1303 216° Southwest 423 487 34,000  Level Washington Center
06:57PM 36.8644 -79.2328 217° Southwest 420 483 34,000  Level Washington Center
06:58PM 36.7739 -79.3169 217° Southwest 416 479 34,000  Level Washington Center
06:59PM 36.6833 -79.4006 217° Southwest 416 479 34,000  Level Washington Center
07:00PM 36.5742 -79.5008 216° Southwest 415 478 34,000  Level Washington Center
07:01PM 36.4842 -79.5817 216° Southwest 414 476 34,000  Level Washington Center
07:02PM 36.3869 -79.6647 215° Southwest 424 488 34,000  Level Atlanta Center
07:03PM 36.2939 -79.7472 216° Southwest 424 488 34,000  Level Atlanta Center
07:04PM 36.2111 -79.8211 216° Southwest 418 481 34,000  Level Atlanta Center
07:05PM 36.1200 -79.9056 217° Southwest 418 481 34,000  Level Atlanta Center
07:06PM 36.0267 -79.9822 214° Southwest 418 481 34,000  Level Atlanta Center
07:07PM 35.9219 -80.0361 203° Southwest 413 475 34,000  Level Atlanta Center
07:08PM 35.8050 -80.0931 202° Southwest 413 475 34,000  Level Atlanta Center
07:09PM 35.6983 -80.1467 202° Southwest 413 475 34,000  Level Atlanta Center
07:12PM 35.4364 -80.2792 202° Southwest 406 467 34,000  Level Jacksonville Center
07:13PM 35.3289 -80.3333 202° Southwest 411 473 34,000  Level Jacksonville Center
07:14PM 35.2283 -80.3842 202° Southwest 415 478 34,000  Level Washington Center
07:15PM 35.1142 -80.4414 202° Southwest 411 473 34,000  Level Jacksonville Center
07:16PM 35.0089 -80.4925 202° Southwest 411 473 34,000  Level Jacksonville Center
07:17PM 34.8994 -80.5489 203° Southwest 411 473 34,000 -50 Level Jacksonville Center
07:18PM 34.7961 -80.6022 203° Southwest 411 473 33,900 -50 Descending Jacksonville Center
07:19PM 34.6886 -80.6556 202° Southwest 411 473 33,900 50 Level Jacksonville Center
07:20PM 34.5769 -80.7039 200° South 417 480 34,000 50 Climbing Jacksonville Center
07:21PM 34.4672 -80.7569 202° Southwest 431 496 34,000  Level Jacksonville Center
07:22PM 34.3597 -80.8150 204° Southwest 431 496 34,000 -50 Level Jacksonville Center
07:23PM 34.2583 -80.8625 201° Southwest 425 489 33,900 -50 Descending Jacksonville Center
07:24PM 34.1589 -80.9100 202° Southwest 420 483 33,900  Level Jacksonville Center
07:25PM 34.0511 -80.9625 202° Southwest 420 483 33,900  Level Jacksonville Center
07:26PM 33.9414 -81.0150 202° Southwest 425 489 33,900 50 Level Jacksonville Center
07:27PM 33.8233 -81.0703 201° Southwest 425 489 34,000  Climbing Jacksonville Center
07:28PM 33.7239 -81.1222 203° Southwest 430 495 33,900 -50 Descending Jacksonville Center
07:29PM 33.6161 -81.1742 202° Southwest 430 495 33,900  Level Jacksonville Center
07:30PM 33.5039 -81.2211 199° South 430 495 33,900  Level Jacksonville Center
07:31PM 33.3917 -81.2556 194° South 425 489 33,900  Level Jacksonville Center
07:32PM 33.2775 -81.2900 194° South 420 483 33,900  Level Jacksonville Center
07:33PM 33.1650 -81.3242 194° South 420 483 33,900  Level Jacksonville Center
07:34PM 33.0486 -81.3586 194° South 420 483 33,900  Level Jacksonville Center
07:35PM 32.9364 -81.3925 194° South 420 483 33,900  Level Jacksonville Center
07:36PM 32.8242 -81.4292 195° South 420 483 33,900  Level Jacksonville Center
07:37PM 32.7075 -81.4631 194° South 420 483 33,900 50 Level Jacksonville Center
07:38PM 32.5828 -81.4994 194° South 415 478 34,000 50 Climbing Jacksonville Center
07:39PM 32.4703 -81.5333 194° South 425 489 34,000  Level Jacksonville Center
07:40PM 32.3558 -81.5694 195° South 425 489 34,000  Level Jacksonville Center
07:41PM 32.2392 -81.6006 193° South 431 496 34,000  Level Jacksonville Center
07:42PM 32.1372 -81.6314 194° South 425 489 34,000  Level Jacksonville Center
07:43PM 32.0083 -81.6675 193° South 431 496 34,000  Level Jacksonville Center
07:44PM 31.8894 -81.7033 194° South 436 502 34,000  Level Jacksonville Center
07:45PM 31.7731 -81.7392 195° South 436 502 34,000  Level Jacksonville Center
07:46PM 31.6542 -81.7747 194° South 435 501 34,000  Level Jacksonville Center
07:47PM 31.5481 -81.8053 194° South 435 501 34,000  Level Jacksonville Center
07:48PM 31.4189 -81.8408 193° South 434 499 34,000 -50 Level Jacksonville Center
07:49PM 31.2981 -81.8786 195° South 436 502 33,900 -50 Descending Jacksonville Center
07:50PM 31.1814 -81.9114 194° South 436 502 33,900  Level Jacksonville Center
07:51PM 31.0647 -81.9442 194° South 436 502 33,900  Level Jacksonville Center
07:52PM 30.9461 -81.9794 194° South 436 502 33,900  Level Jacksonville Center
07:53PM 30.8292 -82.0119 193° South 431 496 33,900  Level Jacksonville Center
07:54PM 30.7083 -82.0469 194° South 431 496 33,900  Level Jacksonville Center
07:55PM 30.5917 -82.0769 192° South 436 502 33,900  Level Jacksonville Center
07:56PM 30.4728 -82.1069 192° South 436 502 33,900  Level Jacksonville Center
07:57PM 30.3519 -82.1417 194° South 436 502 33,900  Level Jacksonville Center
07:58PM 30.2372 -82.1736 194° South 440 506 33,900  Level Jacksonville Center
07:59PM 30.1186 -82.2058 193° South 438 504 33,900  Level Jacksonville Center
08:00PM 30.0103 -82.2425 196° South 433 498 33,900  Level Jacksonville Center
08:01PM 29.8914 -82.2744 193° South 439 505 33,900 -1,150 Level Jacksonville Center
08:02PM 29.7744 -82.3064 193° South 433 498 31,600 -2,850 Descending Jacksonville Center
08:03PM 29.6431 -82.3383 192° South 433 498 28,200 -2,850 Descending Jacksonville Center
08:04PM 29.5200 -82.3483 184° South 438 504 25,900 -2,250 Descending Jacksonville Center
08:05PM 29.3906 -82.3325 174° South 449 517 23,700 -2,150 Descending Jacksonville Center
08:06PM 29.2672 -82.3189 175° South 454 522 21,600 -2,000 Descending Jacksonville Center
08:07PM 29.1525 -82.3053 174° South 447 514 19,700 -2,200 Descending Jacksonville Center
08:08PM 29.0439 -82.2942 175° South 423 487 17,200 -2,100 Descending Jacksonville Center
08:09PM 28.9561 -82.2850 175° South 406 467 15,500 -1,850 Descending Jacksonville Center
08:10PM 28.8497 -82.2692 173° South 382 440 13,500 -974 Descending Jacksonville Center
08:11PM 28.7000 -82.2500 174° South 290 334 13,000 -234 Descending Tampa TRACON
08:12PM 28.6167 -82.2500 180° South 289 333 12,900 -800 Descending Tampa TRACON
08:13PM 28.5333 -82.2500 180° South 304 350 11,400 -1,250 Descending Tampa TRACON
08:14PM 28.4833 -82.3167 230° Southwest 285 328 10,400 -750 Descending Tampa TRACON
08:15PM 28.4500 -82.4000 246° West 280 322 9,900 -750 Descending Tampa TRACON
08:16PM 28.4167 -82.4667 240° Southwest 272 313 8,900 -1,400 Descending Tampa TRACON
08:17PM 28.4000 -82.5500 257° West 265 305 7,100 -1,900 Descending Tampa TRACON
08:18PM 28.3667 -82.6333 246° West 261 300 5,100 -1,810 Descending Tampa TRACON
08:20PM 28.3167 -82.7000 230° Southwest 254 292 3,300 -1,050 Descending Tampa TRACON
08:20PM 28.2667 -82.7167 196° South 246 283 3,000 -150 Descending Tampa TRACON
08:22PM 28.1833 -82.7333 190° South 252 290 3,000 -47 Level Tampa TRACON
08:23PM 28.1167 -82.7333 180° South 250 288 2,900 -209 Descending Tampa TRACON
08:23PM 28.0667 -82.7167 164° South 235 270 2,600 -650 Descending Tampa TRACON
08:25PM 28.0000 -82.7000 168° South 171 197 1,600 -905 Descending Tampa TRACON
08:26PM 27.9667 -82.7000 180° South 137 158 700 -900 Descending Tampa TRACON